カタログに戻る

STARLINK-35453

運用中通信VLEO
NORAD 65878·PAYLOAD·🇺🇸 United States

打ち上げ Oct 3, 2025 から Vandenberg Space Force Base

Loading…

次のパス (今後24時間)

TLE

最新Source: CelesTrak SupGP

元期: Sep 14, 2026, 22:39 UTC

1 65878C 25223AA  26257.94423611 -.00054350  00000+0 -16058-2 0  2577
2 65878  53.1561 131.4497 0001110  93.1577 241.8342 15.34418069    17

AllMySatでSTARLINK-35453をリアルタイム追跡

Download on the App Store